EW5171 Weather Reports


time (UTC)temp
C
wind
direction
speed
KPH
gust
KPH
rain 1hr
cm
rain 24hr
cm
rain mn
cm
humidity
%
barometer
mb
20260509182027 11 67 0.0 1.6 0.00 0.00 0.00 56 1019.9
20260509181527 12 67 0.0 1.6 0.00 0.00 0.00 55 1019.9
20260509181027 12 67 0.0 3.2 0.00 0.00 0.00 54 1019.9
20260509180526 12 67 0.0 1.6 0.00 0.00 0.00 52 1019.9
20260509180026 12 67 0.0 1.6 0.00 0.00 0.00 52 1019.9
20260509175526 12 67 0.0 1.6 0.00 0.00 0.00 51 1019.9
20260509175026 12 67 0.0 3.2 0.00 0.00 0.00 52 1019.9
20260509174525 13 67 1.6 3.2 0.00 0.00 0.00 52 1019.9
20260509174025 13 87 0.0 3.2 0.00 0.00 0.00 52 1019.9
20260509173524 13 87 0.0 4.8 0.00 0.00 0.00 51 1020.0
20260509173024 13 67 0.0 6.4 0.00 0.00 0.00 50 1019.9
20260509172524 13 71 1.6 4.8 0.00 0.00 0.00 49 1019.9
20260509172023 13 251 0.0 6.4 0.00 0.00 0.00 50 1020.0
20260509171534 13 49 1.6 6.4 0.00 0.00 0.00 49 1020.1
20260509171022 14 131 0.0 4.8 0.00 0.00 0.00 47 1020.1
20260509170526 14 179 0.0 4.8 0.00 0.00 0.00 48 1020.2
20260509170028 14 93 0.0 4.8 0.00 0.00 0.00 48 1020.1
20260509165521 14 74 1.6 6.4 0.00 0.00 0.00 47 1020.2
20260509165022 14 63 0.0 4.8 0.00 0.00 0.00 47 1020.2
20260509164521 14 93 1.6 4.8 0.00 0.00 0.00 47 1020.2
20260509164022 14 196 0.0 8.0 0.00 0.00 0.00 47 1020.3
20260509163519 14 217 0.0 6.4 0.00 0.00 0.00 45 1020.4
20260509163024 14 207 1.6 6.4 0.00 0.00 0.00 45 1020.4
20260509162518 14 103 1.6 6.4 0.00 0.00 0.00 44 1020.4
20260509162018 14 59 1.6 6.4 0.00 0.00 0.00 44 1020.5
20260509161517 14 26 1.6 9.7 0.00 0.00 0.00 44 1020.5
20260509161017 14 44 1.6 9.7 0.00 0.00 0.00 44 1020.6
20260509160516 14 107 1.6 6.4 0.00 0.00 0.00 44 1020.7
20260509160018 14 67 1.6 8.0 0.00 0.00 0.00 45 1020.7
20260509155515 15 63 0.0 8.0 0.00 0.00 0.00 45 1020.8
20260509155015 14 142 1.6 6.4 0.00 0.00 0.00 44 1020.8
20260509154518 14 123 1.6 6.4 0.00 0.00 0.00 43 1020.8
20260509154014 14 105 0.0 6.4 0.00 0.00 0.00 46 1020.9
20260509153515 14 175 1.6 6.4 0.00 0.00 0.00 45 1021.0
20260509153013 14 70 3.2 9.7 0.00 0.00 0.00 45 1021.0
20260509152512 15 32 3.2 8.0 0.00 0.00 0.00 46 1021.1
20260509152011 15 125 1.6 6.4 0.00 0.00 0.00 46 1021.2
20260509151509 15 148 1.6 6.4 0.00 0.00 0.00 48 1021.3
20260509151009 14 91 1.6 8.0 0.00 0.00 0.00 48 1021.3
20260509150509 14 92 4.8 9.7 0.00 0.00 0.00 45 1021.4
20260509150016 15 169 3.2 8.0 0.00 0.00 0.00 47 1021.5
20260509145511 15 79 1.6 9.7 0.00 0.00 0.00 48 1021.5
20260509145008 15 67 1.6 9.7 0.00 0.00 0.00 46 1021.6
20260509144506 15 63 3.2 9.7 0.00 0.00 0.00 45 1021.6
20260509144009 15 74 0.0 9.7 0.00 0.00 0.00 46 1021.6
20260509143506 15 109 1.6 6.4 0.00 0.00 0.00 46 1021.7
20260509143006 15 62 0.0 8.0 0.00 0.00 0.00 47 1021.7
20260509142505 15 57 3.2 8.0 0.00 0.00 0.00 45 1021.7
20260509142004 15 43 1.6 11.3 0.00 0.00 0.00 46 1021.8
20260509141508 15 72 1.6 11.3 0.00 0.00 0.00 45 1021.9
20260509141004 15 236 1.6 12.9 0.00 0.00 0.00 47 1021.9
20260509140502 15 83 3.2 12.9 0.00 0.00 0.00 47 1022.0
20260509140001 15 169 3.2 12.9 0.00 0.00 0.00 44 1022.0
20260509135501 15 12 1.6 11.3 0.00 0.00 0.00 46 1022.1
20260509135100 15 67 3.2 11.3 0.00 0.00 0.00 45 1022.1
20260509134629 15 133 1.6 8.0 0.00 0.00 0.00 46 1022.2
20260509134103 15 246 3.2 14.5 0.00 0.00 0.00 45 1022.3
20260509133558 15 154 4.8 14.5 0.00 0.00 0.00 46 1022.4
20260509133100 15 117 3.2 9.7 0.00 0.00 0.00 46 1022.5
20260509132557 15 161 1.6 9.7 0.00 0.00 0.00 46 1022.6
20260509132056 15 126 1.6 14.5 0.00 0.00 0.00 46 1022.7
20260509131556 15 95 3.2 14.5 0.00 0.00 0.00 44 1022.8
20260509131054 15 121 1.6 11.3 0.00 0.00 0.00 47 1022.8
20260509130554 15 30 1.6 11.3 0.00 0.00 0.00 46 1022.9
20260509130052 15 111 3.2 11.3 0.00 0.00 0.00 46 1022.9
20260509125553 15 194 1.6 9.7 0.00 0.00 0.00 46 1022.9
20260509125051 15 29 3.2 9.7 0.00 0.00 0.00 45 1022.9
20260509124551 14 325 3.2 12.9 0.00 0.00 0.00 45 1023.1
20260509124051 15 179 3.2 11.3 0.00 0.00 0.00 45 1023.2
20260509123551 15 327 4.8 11.3 0.00 0.00 0.00 46 1023.1
20260509123052 15 98 1.6 12.9 0.00 0.00 0.00 46 1023.1
20260509122549 15 26 1.6 9.7 0.00 0.00 0.00 44 1023.3
20260509122049 15 86 4.8 11.3 0.00 0.00 0.00 44 1023.4
20260509121552 15 188 1.6 9.7 0.00 0.00 0.00 44 1023.4
20260509121049 15 174 3.2 9.7 0.00 0.00 0.00 45 1023.5
20260509120548 15 192 3.2 11.3 0.00 0.00 0.00 44 1023.5
20260509120047 15 11 3.2 11.3 0.00 0.00 0.00 43 1023.5
20260509115546 15 153 3.2 11.3 0.00 0.00 0.00 44 1023.5
20260509115046 15 113 3.2 9.7 0.00 0.00 0.00 43 1023.6
20260509114547 15 40 3.2 9.7 0.00 0.00 0.00 43 1023.6
20260509114045 15 28 3.2 12.9 0.00 0.00 0.00 44 1023.7
20260509113545 14 34 3.2 12.9 0.00 0.00 0.00 46 1023.7
20260509113050 15 142 3.2 11.3 0.00 0.00 0.00 47 1023.7
20260509112542 15 103 3.2 12.9 0.00 0.00 0.00 46 1023.9
20260509112042 15 44 4.8 12.9 0.00 0.00 0.00 45 1023.9
20260509111544 15 74 3.2 11.3 0.00 0.00 0.00 46 1024.0
20260509111043 15 14 3.2 8.0 0.00 0.00 0.00 47 1024.0
20260509110543 15 48 4.8 9.7 0.00 0.00 0.00 46 1024.0
20260509110040 15 94 1.6 8.0 0.00 0.00 0.00 46 1024.1
20260509105540 15 197 3.2 11.3 0.00 0.00 0.00 47 1024.1
20260509105039 15 93 3.2 11.3 0.00 0.00 0.00 47 1024.1
20260509104538 15 69 3.2 8.0 0.00 0.00 0.00 49 1024.1
20260509104037 14 37 1.6 11.3 0.00 0.00 0.00 53 1024.1
20260509103537 14 139 4.8 14.5 0.00 0.00 0.00 48 1024.2
20260509103035 14 203 3.2 14.5 0.00 0.00 0.00 48 1024.2
20260509102535 14 59 1.6 8.0 0.00 0.00 0.00 49 1024.3
20260509102035 14 164 3.2 9.7 0.00 0.00 0.00 49 1024.3
20260509101546 14 111 3.2 9.7 0.00 0.00 0.00 49 1024.3
20260509101033 14 81 1.6 11.3 0.00 0.00 0.00 52 1024.4
20260509100534 15 68 3.2 8.0 0.00 0.00 0.00 49 1024.4
20260509100032 14 5 1.6 6.4 0.00 0.00 0.00 48 1024.4
20260509095532 14 43 1.6 11.3 0.00 0.00 0.00 51 1024.5
20260509095031 13 20 3.2 11.3 0.00 0.00 0.00 51 1024.5
20260509094531 14 19 3.2 9.7 0.00 0.00 0.00 53 1024.5
20260509094030 14 189 3.2 9.7 0.00 0.00 0.00 53 1024.5
20260509093529 14 23 3.2 8.0 0.00 0.00 0.00 53 1024.4
20260509093028 13 333 3.2 9.7 0.00 0.00 0.00 51 1024.4
20260509092527 13 360 3.2 9.7 0.00 0.00 0.00 49 1024.4
20260509092028 13 205 3.2 9.7 0.00 0.00 0.00 51 1024.4
20260509091527 13 55 1.6 9.7 0.00 0.00 0.00 52 1024.3
20260509091026 13 173 3.2 9.7 0.00 0.00 0.00 50 1024.3
20260509090528 13 74 1.6 9.7 0.00 0.00 0.00 51 1024.3
20260509090026 13 92 3.2 8.0 0.00 0.00 0.00 52 1024.3
20260509085523 13 138 1.6 9.7 0.00 0.00 0.00 52 1024.3
20260509085021 13 80 3.2 11.3 0.00 0.00 0.00 54 1024.3
20260509084521 13 194 3.2 9.7 0.00 0.00 0.00 54 1024.4
20260509084021 13 123 3.2 12.9 0.00 0.00 0.00 54 1024.5
20260509083519 13 103 3.2 11.3 0.00 0.00 0.00 52 1024.5
20260509083021 13 95 1.6 11.3 0.00 0.00 0.00 52 1024.6
20260509082518 13 55 1.6 11.3 0.00 0.00 0.00 55 1024.5
20260509082017 12 65 3.2 11.3 0.00 0.00 0.00 54 1024.5
20260509081517 12 200 4.8 9.7 0.00 0.00 0.00 55 1024.6
20260509081019 12 158 3.2 9.7 0.00 0.00 0.00 54 1024.5
20260509080514 12 196 3.2 9.7 0.00 0.00 0.00 53 1024.4
20260509080012 12 171 3.2 12.9 0.00 0.00 0.00 54 1024.5
20260509075512 12 115 3.2 12.9 0.00 0.00 0.00 51 1024.4
20260509075012 12 192 1.6 9.7 0.00 0.00 0.00 56 1024.4
20260509074509 12 34 3.2 9.7 0.00 0.00 0.00 55 1024.3
20260509074008 12 217 4.8 9.7 0.00 0.00 0.00 55 1024.3
20260509073507 12 153 0.0 8.0 0.00 0.00 0.00 55 1024.5
20260509073009 12 193 3.2 8.0 0.00 0.00 0.00 54 1024.5
20260509072506 12 69 1.6 8.0 0.00 0.00 0.00 57 1024.5
20260509072005 11 205 3.2 11.3 0.00 0.00 0.00 55 1024.5
20260509071504 11 192 4.8 11.3 0.00 0.00 0.00 55 1024.5
20260509071003 12 200 4.8 8.0 0.00 0.00 0.00 56 1024.6
20260509070504 11 69 1.6 6.4 0.00 0.00 0.00 56 1024.5
20260509070101 11 146 1.6 16.1 0.00 0.00 0.00 55 1024.5
20260509065604 11 193 1.6 16.1 0.00 0.00 0.00 57 1024.6
20260509065200 11 107 1.6 8.0 0.00 0.00 0.00 57 1024.6
20260509064617 11 154 3.2 8.0 0.00 0.00 0.00 55 1024.5
20260509064058 12 276 1.6 9.7 0.00 0.00 0.00 57 1024.5
20260509063555 11 128 1.6 8.0 0.00 0.00 0.00 58 1024.5
20260509063054 11 152 1.6 11.3 0.00 0.00 0.00 58 1024.5
20260509062554 11 180 3.2 11.3 0.00 0.00 0.00 60 1024.4
20260509062051 11 192 4.8 6.4 0.00 0.00 0.00 59 1024.4
20260509061559 11 182 3.2 8.0 0.00 0.00 0.00 59 1024.3
20260509061048 11 119 1.6 8.0 0.00 0.00 0.00 60 1024.3
20260509060547 10 188 1.6 8.0 0.00 0.00 0.00 62 1024.4
20260509060047 10 184 0.0 8.0 0.00 0.00 0.00 65 1024.3
20260509055544 10 208 1.6 8.0 0.00 0.00 0.00 66 1024.4
20260509055042 9 188 1.6 8.0 0.00 0.00 0.00 70 1024.4
20260509054541 8 117 1.6 8.0 0.00 0.00 0.00 74 1024.4
20260509054040 7 237 1.6 4.8 0.00 0.00 0.00 79 1024.4
20260509053538 6 153 1.6 4.8 0.00 0.00 0.00 86 1024.4
20260509053037 5 182 1.6 4.8 0.00 0.00 0.00 90 1024.5
20260509052534 4 182 0.0 4.8 0.00 0.00 0.00 90 1024.4
20260509052034 4 191 0.0 0.0 0.00 0.00 0.00 91 1024.4
20260509051537 3 191 0.0 0.0 0.00 0.00 0.00 91 1024.4
20260509051034 3 191 0.0 0.0 0.00 0.00 0.00 91 1024.4
20260509050534 2 191 0.0 0.0 0.00 0.00 0.00 91 1024.3
20260509050035 2 191 0.0 0.0 0.00 0.00 0.00 91 1024.4
20260509045532 2 191 0.0 0.0 0.00 0.00 0.00 91 1024.4
20260509045033 2 191 0.0 0.0 0.00 0.00 0.00 90 1024.4
20260509044533 1 191 0.0 0.0 0.00 0.00 0.00 90 1024.4
20260509044031 1 191 0.0 0.0 0.00 0.00 0.00 90 1024.3
20260509043530 1 191 0.0 0.0 0.00 0.00 0.00 89 1024.4
20260509043029 1 191 0.0 1.6 0.00 0.00 0.00 89 1024.4
20260509042529 1 191 0.0 1.6 0.00 0.00 0.00 89 1024.4
20260509042028 1 191 0.0 1.6 0.00 0.00 0.00 89 1024.5
20260509041527 1 191 0.0 1.6 0.00 0.00 0.00 89 1024.5
20260509041028 1 191 0.0 1.6 0.00 0.00 0.00 89 1024.5
20260509040528 1 191 0.0 0.0 0.00 0.00 0.00 88 1024.5
20260509040025 1 191 0.0 1.6 0.00 0.00 0.00 88 1024.5
20260509035528 1 191 0.0 1.6 0.00 0.00 0.00 88 1024.6
20260509035026 1 191 0.0 1.6 0.00 0.00 0.00 87 1024.6
20260509034538 1 191 0.0 1.6 0.00 0.00 0.00 87 1024.6
20260509034024 1 191 0.0 1.6 0.00 0.00 0.00 87 1024.6
20260509033520 1 191 0.0 1.6 0.00 0.00 0.00 87 1024.6
20260509033019 1 191 0.0 1.6 0.00 0.00 0.00 87 1024.6
20260509032518 1 191 0.0 1.6 0.00 0.00 0.00 87 1024.6
20260509032020 2 191 0.0 1.6 0.00 0.00 0.00 86 1024.6
20260509031516 2 191 0.0 1.6 0.00 0.00 0.00 86 1024.6
20260509031015 2 191 0.0 1.6 0.00 0.00 0.00 85 1024.6
20260509030515 2 191 0.0 1.6 0.00 0.00 0.00 85 1024.6
20260509030019 2 191 0.0 1.6 0.00 0.00 0.00 84 1024.6
20260509025514 2 191 0.0 3.2 0.00 0.00 0.00 84 1024.6
20260509025010 3 191 0.0 3.2 0.00 0.00 0.00 83 1024.6
20260509024510 3 191 0.0 1.6 0.00 0.00 0.00 83 1024.6
20260509024011 3 191 0.0 1.6 0.00 0.00 0.00 83 1024.7
20260509023509 3 191 0.0 1.6 0.00 0.00 0.00 82 1024.7
20260509023008 3 191 0.0 1.6 0.00 0.00 0.00 82 1024.8
20260509022507 3 191 0.0 1.6 0.00 0.00 0.00 81 1024.8
20260509022008 4 191 0.0 1.6 0.00 0.00 0.00 79 1024.8
20260509021508 4 191 0.0 1.6 0.00 0.00 0.00 78 1024.8
20260509021010 5 191 0.0 3.2 0.00 0.00 0.00 78 1024.8
20260509020512 5 191 0.0 3.2 0.00 0.00 0.00 77 1024.9
20260509020006 5 191 0.0 6.4 0.00 0.00 0.00 78 1024.8
20260509015507 5 164 1.6 6.4 0.00 0.00 0.00 80 1024.8
20260509015006 5 168 0.0 4.8 0.00 0.00 0.00 81 1024.8
20260509014504 4 223 0.0 4.8 0.00 0.00 0.00 83 1024.9
20260509014004 4 206 0.0 4.8 0.00 0.00 0.00 83 1024.9
20260509013503 3 206 0.0 4.8 0.00 0.00 0.00 85 1024.9
20260509013003 3 213 0.0 3.2 0.00 0.00 0.00 87 1024.9
20260509012504 3 195 0.0 3.2 0.00 0.00 0.00 87 1024.9
20260509012002 3 196 0.0 3.2 0.00 0.00 0.00 87 1024.9
20260509011502 3 196 0.0 3.2 0.00 0.00 0.00 87 1025.0
20260509011002 3 196 0.0 3.2 0.00 0.00 0.00 88 1025.0
20260509010502 3 196 0.0 3.2 0.00 0.00 0.00 87 1025.0
20260509010107 3 196 0.0 3.2 0.00 0.00 0.00 88 1025.0
20260509005603 3 196 0.0 3.2 0.00 0.00 0.00 88 1025.0
20260509005059 3 196 0.0 3.2 0.00 0.00 0.00 88 1025.0
20260509004622 3 196 0.0 1.6 0.00 0.00 0.00 88 1025.0
20260509004058 3 196 0.0 1.6 0.00 0.00 0.00 88 1025.0
20260509003602 3 196 0.0 1.6 0.00 0.00 0.00 88 1025.1
20260509003057 3 196 0.0 0.0 0.00 0.00 0.00 88 1025.1
20260509002556 3 196 0.0 0.0 0.00 0.00 0.00 88 1025.1
20260509002056 3 196 0.0 1.6 0.00 0.00 0.00 87 1025.1
20260509001557 3 196 0.0 1.6 0.00 0.00 0.00 87 1025.1
20260509001055 3 196 0.0 0.0 0.00 0.00 0.00 87 1025.1
20260509000554 3 196 0.0 0.0 0.00 0.00 0.00 87 1025.1
20260509000054 3 196 0.0 0.0 0.00 0.00 0.00 87 1025.1
20260508235553 3 196 0.0 0.0 0.00 0.00 0.00 87 1025.0
20260508235055 3 196 0.0 0.0 0.00 0.00 0.00 87 1025.0
20260508234552 3 196 0.0 0.0 0.00 0.00 0.00 87 1025.1
20260508234054 3 196 0.0 0.0 0.00 0.00 0.00 87 1025.0
20260508233554 4 196 0.0 0.0 0.00 0.00 0.00 87 1025.1
20260508233050 4 196 0.0 0.0 0.00 0.00 0.00 87 1025.0
20260508232549 4 196 0.0 0.0 0.00 0.00 0.00 87 1025.1
20260508232050 4 196 0.0 0.0 0.00 0.00 0.00 87 1025.1
20260508231547 4 196 0.0 0.0 0.00 0.00 0.00 87 1025.1
20260508231047 4 196 0.0 0.0 0.00 0.00 0.00 87 1025.1
20260508230547 4 196 0.0 0.0 0.00 0.00 0.00 87 1025.1
20260508230051 4 196 0.0 0.0 0.00 0.00 0.00 87 1025.0
20260508225546 4 196 0.0 0.0 0.00 0.00 0.00 87 1025.1
20260508225045 5 196 0.0 0.0 0.00 0.00 0.00 86 1025.0
20260508224550 5 196 0.0 0.0 0.00 0.00 0.00 86 1025.0
20260508224043 5 196 0.0 0.0 0.00 0.00 0.00 86 1025.0
20260508223543 5 196 0.0 0.0 0.00 0.00 0.00 86 1025.1
20260508223048 5 196 0.0 0.0 0.00 0.00 0.00 85 1025.0
20260508222540 5 196 0.0 0.0 0.00 0.00 0.00 85 1025.0
20260508222040 5 196 0.0 0.0 0.00 0.00 0.00 85 1024.9
20260508221539 5 196 0.0 0.0 0.00 0.00 0.00 85 1024.9
20260508221039 5 196 0.0 1.6 0.00 0.00 0.00 85 1024.9
20260508220539 5 195 0.0 1.6 0.00 0.00 0.00 85 1024.9
20260508220037 5 196 0.0 1.6 0.00 0.00 0.00 86 1024.9
20260508215537 5 196 0.0 6.4 0.00 0.00 0.00 86 1024.9
20260508215037 5 196 1.6 6.4 0.00 0.00 0.00 87 1024.8
20260508214552 5 195 0.0 1.6 0.00 0.00 0.00 86 1024.8
20260508214038 5 195 0.0 0.0 0.00 0.00 0.00 86 1024.8
20260508213536 5 195 0.0 0.0 0.00 0.00 0.00 86 1024.8
20260508213035 5 195 0.0 0.0 0.00 0.00 0.00 86 1024.8
20260508212535 5 195 0.0 0.0 0.00 0.00 0.00 86 1024.8
20260508212036 6 195 0.0 0.0 0.00 0.00 0.00 86 1024.7
20260508211534 6 195 0.0 0.0 0.00 0.00 0.00 86 1024.6
20260508211034 6 195 0.0 0.0 0.00 0.00 0.00 85 1024.7
20260508210534 6 195 0.0 0.0 0.00 0.00 0.00 85 1024.7
20260508210037 6 195 0.0 0.0 0.00 0.00 0.00 85 1024.6
20260508205533 6 195 0.0 0.0 0.00 0.00 0.00 85 1024.6
20260508205033 6 195 0.0 0.0 0.00 0.00 0.00 84 1024.5
20260508204536 6 195 0.0 0.0 0.00 0.00 0.00 84 1024.5
20260508204032 6 195 0.0 0.0 0.00 0.00 0.00 84 1024.5
20260508203532 7 195 0.0 0.0 0.00 0.00 0.00 84 1024.5
20260508203031 7 195 0.0 0.0 0.00 0.00 0.00 84 1024.4
20260508202530 7 195 0.0 0.0 0.00 0.00 0.00 83 1024.4
20260508202030 7 195 0.0 0.0 0.00 0.00 0.00 83 1024.3
20260508201531 7 195 0.0 0.0 0.00 0.00 0.00 83 1024.2
20260508201029 7 195 0.0 0.0 0.00 0.00 0.00 82 1024.2
20260508200529 8 195 0.0 0.0 0.00 0.00 0.00 81 1024.1
20260508200030 8 195 0.0 0.0 0.00 0.00 0.00 81 1024.1
20260508195528 8 195 0.0 0.0 0.00 0.00 0.00 80 1024.1
20260508195028 8 195 0.0 0.0 0.00 0.00 0.00 80 1024.1
20260508194528 8 195 0.0 0.0 0.00 0.00 0.00 79 1024.1
20260508194027 9 195 0.0 0.0 0.00 0.00 0.00 78 1024.1
20260508193527 9 195 0.0 0.0 0.00 0.00 0.00 77 1024.0
20260508193030 9 195 0.0 0.0 0.00 0.00 0.00 76 1024.0
20260508192526 10 195 0.0 0.0 0.00 0.00 0.00 76 1023.9
20260508192027 10 195 0.0 0.0 0.00 0.00 0.00 75 1023.9
20260508191527 10 195 0.0 0.0 0.00 0.00 0.00 74 1023.8
20260508191024 11 195 0.0 0.0 0.00 0.00 0.00 73 1023.8
20260508190527 11 195 0.0 0.0 0.00 0.00 0.00 72 1023.8
20260508190044 11 195 0.0 1.6 0.00 0.00 0.00 72 1023.7
20260508185527 12 195 0.0 3.2 0.00 0.00 0.00 71 1023.6
20260508185023 12 195 0.0 4.8 0.00 0.00 0.00 71 1023.5
20260508184531 12 195 0.0 4.8 0.00 0.00 0.00 71 1023.5
20260508184027 12 195 0.0 4.8 0.00 0.00 0.00 72 1023.5
20260508183523 12 195 0.0 4.8 0.00 0.00 0.00 71 1023.4
20260508183034 12 177 1.6 4.8 0.00 0.00 0.00 70 1023.5
20260508182523 12 184 0.0 6.4 0.00 0.00 0.00 70 1023.5